Torna al catalogo

STARLINK-31135

AttivoComunicazioniVLEO
NORAD 58771·PAYLOAD·🇺🇸 United States

Lanciato Jan 14, 2024 da Vandenberg Space Force Base

Loading…

Prossimi Passaggi (prossime 24 ore)

TLE

AggiornatoSource: CelesTrak SupGP

Epoca: Sep 14, 2026, 21:53 UTC

1 58771C 24011G   26257.91229167  .00017256  00000+0  50957-3 0  2571
2 58771  53.1584 211.4880 0001335  93.2613  44.6562 15.34397111    19

Traccia STARLINK-31135 in tempo reale con AllMySat

Download on the App Store